Location: Kailua
(21.4020°N, 157.7390°W)
Time: 20:24:59
(UTC-10:00)

Cosmos 2297 Rocket - Visible Passes

Search period start: 23 July 2014 00:00
Search period end: 02 August 2014 00:00
Orbit: 841 x 843 km, 71.0° (Epoch: 22 July)

Date Brightness Start Highest point End Pass type
(mag) Time Alt. Az. Time Alt. Az. Time Alt. Az.
28 Jul 5.0 23:14:32 11° N 23:14:32 11° N 23:14:42 10° N visible
29 Jul 4.9 22:59:16 12° N 22:59:16 12° N 22:59:45 10° N visible
30 Jul 4.7 22:43:54 15° N 22:43:54 15° N 22:44:48 10° N visible
31 Jul 4.4 22:28:24 18° N 22:28:24 18° N 22:29:51 10° N visible
01 Aug 4.1 22:12:42 24° N 22:12:42 24° N 22:14:53 10° N visible
